Home   Weather   Rzeszów   Past weeks

Flag for Poland Past Weather in Rzeszów, Poland — Yesterday and Last 2 Weeks

Now
32 °F

Overcast.


Feels Like: 19 °F
Forecast: 24 / 33 °F
Wind: 22 mph from West

Location: Rzeszow-Jasionka

Current Time: Dec 6, 2016 at 11:19:41 am

Latest Report: Dec 6, 2016 at 11:00 am


Visibility: 5 mi

Pressure: 30.21 "Hg

Humidity: 80%

Dew Point: 27 °F

Location of RzeszówLocation

Past Weather in Rzeszów — Graph

°F

Rzeszów Temperature Yesterday

Maximum temperature yesterday: 32 °F (at 12:00 pm)
Minimum temperature yesterday: 19 °F (at 6:00 am)
Average temperature yesterday: 26 °F

High & Low Weather Summary for the Past Weeks

 TemperatureHumidityPressure
High54 °F (Nov 21, 10:30 am)100% (Nov 21, 7:00 pm)30.48 "Hg (Nov 21, 7:00 pm)
Low19 °F (Dec 5, 6:00 am)44% (Nov 30, 3:30 pm)29.30 "Hg (Dec 2, 4:30 am)
Average34 °F88%30.09 "Hg
* Reported Nov 21 10:00 am — Dec 6 10:00 am, Rzeszów, Weather by CustomWeather, © 2016

Note: Actual official high and low records may vary slightly from our data, if they occured in-between our weather recording intervals... More about our weather records

Advertising

Rzeszów Weather History for the Previous 24 Hours

Scroll right to see more
 ConditionsComfort  
Time TempWeatherWind HumidityBarometerVisibility
10:00 am
Tue, Dec 6
30 °FLight snow. Broken clouds.18 mph86%30.21 "Hg4 mi
9:30 am30 °FLight snow. Broken clouds.21 mph86%30.21 "Hg4 mi
9:00 am28 °FLight snow. Partly sunny.20 mph86%30.21 "Hg4 mi
8:30 am28 °FLight snow. Broken clouds.20 mph86%30.21 "Hg4 mi
8:00 am28 °FBroken clouds.20 mph80%30.21 "Hg4 mi
7:30 am28 °FPartly sunny.18 mph80%30.18 "HgN/A
7:00 am25 °FPassing clouds.10 mph86%30.18 "HgN/A
6:30 am23 °FPassing clouds.9 mph86%30.21 "HgN/A
6:00 am25 °FClear.12 mph80%30.21 "Hg10 mi
5:30 am25 °FClear.12 mph80%30.21 "Hg10 mi
5:00 am25 °FClear.12 mph80%30.21 "Hg10 mi
4:30 am25 °FClear.13 mph80%30.21 "Hg10 mi
4:00 am25 °FClear.12 mph80%30.21 "Hg10 mi
3:30 am25 °FClear.13 mph86%30.21 "Hg10 mi
3:00 am25 °FClear.14 mph86%30.21 "Hg10 mi
2:30 am27 °FClear.14 mph80%30.21 "Hg10 mi
2:00 am27 °FClear.14 mph80%30.21 "Hg10 mi
1:30 am27 °FClear.15 mph80%30.21 "Hg10 mi
1:00 am27 °FClear.13 mph80%30.21 "Hg10 mi
12:30 am27 °FClear.14 mph80%30.21 "Hg10 mi
12:00 am27 °FClear.15 mph80%30.24 "Hg10 mi
11:30 pm
Mon, Dec 5
27 °FClear.15 mph80%30.24 "Hg10 mi
11:00 pm27 °FClear.14 mph80%30.24 "Hg10 mi
10:30 pm27 °FClear.14 mph80%30.24 "Hg10 mi
10:00 pm27 °FClear.9 mph80%30.24 "Hg10 mi
9:30 pm27 °FClear.13 mph80%30.24 "Hg10 mi
9:00 pm27 °FClear.10 mph80%30.27 "Hg10 mi
8:30 pm27 °FClear.12 mph80%30.27 "Hg10 mi
8:00 pm27 °FClear.13 mph74%30.27 "Hg10 mi
7:30 pm28 °FClear.10 mph74%30.27 "Hg10 mi
7:00 pm28 °FClear.12 mph74%30.27 "Hg10 mi
6:30 pm28 °FClear.9 mph69%30.27 "Hg10 mi
6:00 pm28 °FClear.10 mph69%30.27 "Hg10 mi
5:30 pm28 °FClear.10 mph69%30.30 "Hg10 mi
5:00 pm28 °FClear.10 mph69%30.30 "Hg10 mi
4:30 pm28 °FClear.12 mph69%30.30 "Hg10 mi
4:00 pm28 °FClear.13 mph69%30.30 "Hg10 mi
3:30 pm30 °FClear.13 mph64%30.33 "Hg10 mi
3:00 pm30 °FSunny.13 mph69%30.33 "Hg10 mi
2:30 pm32 °FSunny.14 mph64%30.33 "Hg10 mi
2:00 pm32 °FSunny.14 mph64%30.33 "Hg10 mi
1:30 pm32 °FSunny.16 mph64%30.33 "Hg10 mi
1:00 pm32 °FSunny.17 mph64%30.36 "Hg10 mi
12:30 pm32 °FSunny.15 mph64%30.36 "Hg10 mi
12:00 pm32 °FSunny.16 mph64%30.36 "Hg10 mi
11:30 am30 °FSunny.15 mph69%30.36 "Hg10 mi
11:00 am30 °FSunny.14 mph64%30.39 "Hg10 mi
Weather by CustomWeather, © 2016

See weather overviewHow to use our weather pages